Total_Precipitation_Accumulation
0.00 0.00 0.00 0.00 0.00 0.00 0.00 0.00 0.00 0.00 0.00 0.00 0.00 0.00 0.00 0.00 0.00 0.00 0.00 0.01 0.01 0.01 0.00 0.01 0.01 0.01 0.01 0.01 0.02 0.03 0.03 0.02 0.02 0.03 0.03 0.03 0.02 0.02 0.03 0.04 0.02 0.03 0.04 0.05 0.03 0.05 0.17 0.12 0.15 0.09 0.09 0.19 0.10 0.15 0.26 0.08 0.18 0.23 0.26 0.25 0.26 0.14 0.22 0.28 0.25 0.12 0.07 0.02 0.02 0.02 0.02 0.10 0.23 0.41 0.55 0.51 0.42 0.33 0.24 0.33 0.15 0.10 0.11 0.08 0.13
0.00 0.00 0.00 0.00 0.00 0.00 0.00 0.00 0.00 0.00 0.00 0.00 0.00 0.00 0.00 0.00 0.00 0.00 0.00 0.00 0.01 0.01 0.00 0.01 0.00 0.01 0.01 0.01 0.01 0.01 0.05 0.03 0.03 0.03 0.02 0.02 0.02 0.02 0.02 0.04 0.03 0.03 0.04 0.03 0.05 0.04 0.06 0.08 0.12 0.07 0.08 0.14 0.11 0.23 0.24 0.16 0.15 0.21 0.42 0.28 0.24 0.15 0.19 0.21 0.19 0.17 0.11 0.06 0.04 0.05 0.01 0.03 0.06 0.06 0.46 0.43 0.24 0.41 0.27 0.20 0.22 0.18 0.13 0.15 0.06
0.00 0.00 0.00 0.00 0.00 0.00 0.00 0.00 0.00 0.00 0.00 0.00 0.00 0.00 0.00 0.00 0.00 0.00 0.00 0.00 0.00 0.01 0.00 0.01 0.00 0.01 0.01 0.01 0.02 0.02 0.02 0.04 0.04 0.04 0.04 0.04 0.03 0.02 0.02 0.02 0.03 0.04 0.05 0.09 0.05 0.09 0.11 0.13 0.10 0.11 0.12 0.15 0.15 0.18 0.14 0.17 0.22 0.25 0.14 0.13 0.23 0.23 0.14 0.14 0.08 0.12 0.07 0.04 0.04 0.05 0.02 0.03 0.05 0.05 0.09 0.04 0.27 0.46 0.40 0.37 0.45 0.46 0.18 0.16 0.07
0.00 0.00 0.00 0.00 0.00 0.00 0.00 0.00 0.00 0.00 0.00 0.00 0.00 0.00 0.00 0.00 0.00 0.00 0.00 0.01 0.01 0.01 0.01 0.01 0.00 0.01 0.01 0.01 0.01 0.01 0.02 0.03 0.07 0.04 0.05 0.06 0.08 0.05 0.07 0.06 0.09 0.09 0.08 0.06 0.04 0.03 0.06 0.06 0.06 0.10 0.10 0.11 0.10 0.28 0.15 0.17 0.26 0.18 0.38 0.23 0.19 0.18 0.15 0.13 0.15 0.10 0.07 0.07 0.02 0.03 0.01 0.05 0.05 0.02 0.01 0.02 0.06 0.36 0.29 0.23 0.27 0.30 0.16 0.08 0.07
0.00 0.00 0.00 0.00 0.00 0.00 0.00 0.00 0.00 0.00 0.00 0.00 0.00 0.00 0.00 0.00 0.00 0.00 0.00 0.00 0.00 0.00 0.01 0.00 0.01 0.01 0.01 0.02 0.01 0.02 0.03 0.02 0.02 0.04 0.03 0.05 0.04 0.07 0.15 0.11 0.06 0.06 0.04 0.06 0.04 0.07 0.10 0.13 0.08 0.09 0.13 0.24 0.10 0.19 0.21 0.40 0.20 0.41 0.26 0.25 0.19 0.40 0.41 0.18 0.19 0.15 0.13 0.14 0.06 0.03 0.04 0.04 0.03 0.04 0.04 0.07 0.08 0.10 0.16 0.25 0.20 0.18 0.18 0.10 0.05
0.00 0.00 0.00 0.00 0.00 0.00 0.00 0.00 0.00 0.00 0.00 0.00 0.00 0.00 0.00 0.00 0.00 0.00 0.00 0.00 0.00 0.00 0.00 0.01 0.01 0.01 0.01 0.01 0.01 0.02 0.02 0.03 0.04 0.04 0.05 0.05 0.04 0.04 0.05 0.04 0.03 0.03 0.02 0.02 0.06 0.09 0.09 0.10 0.05 0.12 0.13 0.11 0.14 0.32 0.20 0.17 0.40 0.22 0.32 0.42 0.31 0.30 0.48 0.18 0.24 0.13 0.17 0.12 0.10 0.12 0.11 0.10 0.04 0.04 0.03 0.05 0.04 0.05 0.11 0.20 0.21 0.12 0.23 0.23 0.10
0.00 0.00 0.00 0.00 0.00 0.00 0.00 0.00 0.00 0.00 0.00 0.00 0.00 0.00 0.00 0.00 0.00 0.00 0.00 0.00 0.00 0.00 0.00 0.01 0.01 0.01 0.01 0.01 0.02 0.02 0.03 0.04 0.07 0.08 0.08 0.06 0.06 0.05 0.03 0.03 0.03 0.03 0.01 0.02 0.02 0.03 0.06 0.11 0.08 0.12 0.13 0.11 0.10 0.14 0.11 0.14 0.13 0.18 0.20 0.26 0.42 0.28 0.38 0.22 0.12 0.16 0.26 0.20 0.22 0.13 0.08 0.05 0.08 0.08 0.07 0.04 0.03 0.02 0.08 0.35 0.31 0.09 0.20 0.12 0.21
0.00 0.00 0.00 0.00 0.00 0.00 0.00 0.00 0.00 0.00 0.00 0.00 0.00 0.00 0.00 0.00 0.00 0.00 0.00 0.00 0.00 0.00 0.00 0.00 0.00 0.01 0.00 0.01 0.02 0.06 0.05 0.11 0.08 0.08 0.09 0.07 0.05 0.03 0.03 0.03 0.05 0.03 0.02 0.02 0.03 0.04 0.03 0.06 0.09 0.21 0.26 0.13 0.16 0.21 0.29 0.30 0.49 0.52 0.46 0.47 0.35 0.46 0.40 0.51 0.40 0.40 0.40 0.25 0.14 0.16 0.14 0.07 0.08 0.03 0.04 0.08 0.15 0.24 0.22 0.12 0.11 0.20 0.25 0.17 0.13
0.00 0.00 0.00 0.00 0.00 0.00 0.00 0.00 0.00 0.00 0.00 0.00 0.00 0.00 0.01 0.00 0.00 0.00 0.00 0.00 0.00 0.00 0.00 0.00 0.00 0.00 0.00 0.01 0.02 0.09 0.14 0.09 0.10 0.13 0.12 0.06 0.04 0.02 0.02 0.02 0.04 0.04 0.03 0.03 0.04 0.04 0.04 0.04 0.04 0.21 0.32 0.30 0.19 0.22 0.25 0.40 0.69 0.90 0.81 1.14 0.72 0.67 0.51 0.32 0.40 0.32 0.35 0.22 0.31 0.30 0.15 0.13 0.10 0.12 0.10 0.20 0.13 0.06 0.07 0.07 0.07 0.22 0.47 0.32 0.23
0.00 0.00 0.00 0.00 0.00 0.00 0.00 0.00 0.00 0.00 0.00 0.00 0.00 0.00 0.01 0.01 0.01 0.00 0.00 0.00 0.00 0.00 0.00 0.00 0.00 0.00 0.00 0.01 0.06 0.11 0.11 0.13 0.17 0.12 0.07 0.02 0.02 0.02 0.02 0.03 0.02 0.03 0.04 0.03 0.02 0.03 0.05 0.09 0.06 0.06 0.07 0.08 0.10 0.14 0.12 0.19 0.18 0.19 0.29 0.62 0.47 0.49 0.46 0.39 0.55 0.30 0.38 0.25 0.23 0.30 0.33 0.15 0.11 0.19 0.11 0.09 0.13 0.07 0.09 0.21 0.16 0.09 0.29 0.34 0.37
0.00 0.00 0.00 0.00 0.00 0.00 0.00 0.00 0.00 0.00 0.00 0.00 0.00 0.01 0.01 0.00 0.00 0.00 0.00 0.00 0.00 0.00 0.00 0.00 0.00 0.00 0.00 0.00 0.02 0.05 0.09 0.12 0.08 0.10 0.03 0.01 0.02 0.02 0.03 0.02 0.02 0.02 0.03 0.06 0.03 0.03 0.04 0.07 0.12 0.15 0.17 0.13 0.33 0.51 0.48 0.07 0.10 0.21 0.08 0.13 0.34 0.45 0.54 0.37 0.37 0.32 0.45 0.45 0.26 0.16 0.21 0.16 0.14 0.12 0.07 0.06 0.09 0.05 0.06 0.14 0.14 0.12 0.18 0.17 0.08
0.00 0.00 0.00 0.00 0.00 0.00 0.00 0.00 0.00 0.00 0.00 0.00 0.00 0.02 0.02 0.01 0.01 0.00 0.00 0.00 0.00 0.00 0.00 0.00 0.00 0.00 0.00 0.01 0.01 0.02 0.05 0.06 0.07 0.04 0.01 0.01 0.02 0.02 0.02 0.03 0.02 0.01 0.03 0.04 0.04 0.05 0.05 0.10 0.14 0.23 0.26 0.25 0.26 0.25 0.44 0.29 0.47 0.49 0.16 0.03 0.02 0.04 0.15 0.32 0.46 0.54 0.46 0.38 0.30 0.16 0.11 0.11 0.07 0.07 0.04 0.04 0.04 0.06 0.05 0.08 0.30 0.13 0.09 0.06 0.12
0.00 0.00 0.00 0.00 0.00 0.00 0.00 0.00 0.00 0.00 0.00 0.00 0.01 0.01 0.01 0.00 0.00 0.00 0.00 0.00 0.00 0.00 0.00 0.00 0.00 0.00 0.00 0.01 0.01 0.01 0.09 0.16 0.03 0.01 0.00 0.00 0.01 0.01 0.02 0.03 0.02 0.02 0.03 0.04 0.06 0.07 0.10 0.15 0.22 0.27 0.30 0.18 0.18 0.22 0.25 0.35 0.10 0.09 0.10 0.17 0.45 0.11 0.04 0.01 0.03 0.09 0.30 0.39 0.25 0.15 0.10 0.05 0.07 0.08 0.03 0.05 0.05 0.09 0.07 0.16 0.07 0.19 0.10 0.14 0.08
0.00 0.00 0.00 0.00 0.00 0.00 0.00 0.00 0.00 0.00 0.00 0.00 0.00 0.00 0.00 0.00 0.00 0.00 0.00 0.00 0.00 0.00 0.00 0.00 0.00 0.00 0.01 0.03 0.04 0.03 0.18 0.14 0.00 0.00 0.00 0.00 0.00 0.00 0.01 0.03 0.03 0.03 0.04 0.04 0.06 0.09 0.10 0.10 0.11 0.11 0.13 0.16 0.19 0.17 0.19 0.15 0.11 0.15 0.06 0.02 0.03 0.06 0.16 0.21 0.05 0.01 0.03 0.12 0.15 0.17 0.08 0.06 0.06 0.05 0.07 0.07 0.04 0.04 0.05 0.13 0.17 0.15 0.25 0.21 0.12
0.00 0.00 0.00 0.00 0.00 0.00 0.00 0.00 0.00 0.00 0.00 0.00 0.00 0.01 0.01 0.00 0.00 0.00 0.00 0.00 0.00 0.00 0.00 0.00 0.00 0.00 0.02 0.09 0.10 0.07 0.08 0.02 0.00 0.00 0.00 0.00 0.00 0.00 0.00 0.02 0.04 0.05 0.10 0.08 0.14 0.14 0.11 0.09 0.11 0.12 0.09 0.09 0.09 0.07 0.07 0.10 0.08 0.08 0.11 0.05 0.02 0.01 0.02 0.04 0.08 0.09 0.03 0.02 0.09 0.08 0.06 0.06 0.05 0.05 0.06 0.05 0.13 0.08 0.13 0.20 0.11 0.12 0.22 0.48 0.40
0.00 0.00 0.00 0.00 0.00 0.00 0.00 0.00 0.00 0.00 0.00 0.00 0.01 0.00 0.00 0.00 0.00 0.00 0.00 0.00 0.01 0.00 0.00 0.00 0.01 0.00 0.05 0.04 0.04 0.02 0.04 0.00 0.00 0.00 0.00 0.00 0.00 0.00 0.05 0.04 0.03 0.06 0.06 0.07 0.09 0.16 0.12 0.11 0.14 0.12 0.13 0.12 0.07 0.05 0.04 0.04 0.04 0.05 0.06 0.08 0.08 0.04 0.01 0.01 0.00 0.01 0.02 0.03 0.02 0.02 0.02 0.03 0.05 0.10 0.09 0.08 0.14 0.26 0.21 0.32 0.36 0.65 0.86 0.83 0.73
0.00 0.00 0.00 0.00 0.00 0.00 0.00 0.00 0.00 0.00 0.00 0.00 0.00 0.00 0.00 0.00 0.00 0.00 0.00 0.01 0.01 0.01 0.00 0.01 0.02 0.01 0.03 0.05 0.06 0.03 0.04 0.03 0.00 0.00 0.00 0.00 0.00 0.03 0.04 0.03 0.02 0.03 0.08 0.09 0.13 0.12 0.09 0.13 0.18 0.17 0.12 0.07 0.04 0.03 0.02 0.02 0.04 0.04 0.06 0.07 0.09 0.06 0.04 0.02 0.00 0.00 0.00 0.00 0.01 0.01 0.01 0.00 0.00 0.01 0.12 0.45 0.71 0.75 0.59 0.46 0.58 0.36 0.67 0.35 0.14
0.00 0.00 0.00 0.00 0.00 0.00 0.00 0.00 0.00 0.00 0.00 0.00 0.00 0.00 0.00 0.00 0.00 0.00 0.01 0.02 0.02 0.01 0.02 0.02 0.04 0.03 0.02 0.03 0.02 0.08 0.02 0.00 0.00 0.00 0.00 0.00 0.00 0.04 0.08 0.06 0.07 0.10 0.29 0.22 0.12 0.11 0.13 0.15 0.17 0.17 0.13 0.11 0.09 0.07 0.04 0.03 0.04 0.05 0.06 0.09 0.10 0.08 0.05 0.03 0.03 0.02 0.00 0.00 0.00 0.00 0.00 0.00 0.01 0.00 0.00 0.02 0.03 0.11 0.56 0.24 0.15 0.13 0.41 0.17 0.14
0.00 0.00 0.00 0.00 0.00 0.00 0.00 0.00 0.00 0.00 0.00 0.00 0.00 0.00 0.00 0.00 0.01 0.04 0.03 0.02 0.02 0.03 0.01 0.03 0.03 0.05 0.05 0.02 0.01 0.01 0.03 0.04 0.00 0.00 0.00 0.01 0.01 0.02 0.08 0.20 0.23 0.33 0.23 0.15 0.12 0.10 0.12 0.20 0.17 0.19 0.20 0.18 0.12 0.08 0.06 0.07 0.10 0.14 0.15 0.16 0.12 0.07 0.02 0.03 0.05 0.07 0.05 0.03 0.04 0.10 0.02 0.02 0.08 0.03 0.00 0.00 0.00 0.01 0.19 0.35 0.30 0.32 0.42 0.41 0.23
0.00 0.00 0.00 0.00 0.00 0.00 0.00 0.00 0.00 0.00 0.00 0.00 0.00 0.00 0.04 0.06 0.02 0.05 0.03 0.02 0.04 0.03 0.01 0.04 0.03 0.07 0.09 0.06 0.02 0.02 0.03 0.10 0.14 0.12 0.04 0.02 0.01 0.02 0.23 0.22 0.14 0.10 0.13 0.07 0.10 0.07 0.09 0.16 0.19 0.18 0.20 0.20 0.18 0.13 0.13 0.14 0.15 0.23 0.24 0.25 0.22 0.13 0.04 0.06 0.05 0.09 0.15 0.08 0.04 0.02 0.03 0.02 0.01 0.05 0.15 0.04 0.00 0.00 0.02 0.06 0.12 0.23 0.48 0.38 0.47
0.00 0.00 0.00 0.00 0.00 0.00 0.00 0.00 0.00 0.00 0.00 0.00 0.01 0.05 0.06 0.03 0.01 0.02 0.02 0.02 0.02 0.05 0.03 0.04 0.05 0.14 0.09 0.06 0.09 0.14 0.10 0.14 0.09 0.08 0.01 0.03 0.01 0.01 0.01 0.07 0.18 0.09 0.08 0.07 0.07 0.08 0.14 0.21 0.23 0.21 0.21 0.18 0.18 0.21 0.23 0.23 0.20 0.26 0.35 0.39 0.46 0.36 0.17 0.11 0.09 0.05 0.15 0.15 0.11 0.06 0.08 0.06 0.06 0.03 0.07 0.18 0.13 0.04 0.02 0.01 0.03 0.15 0.18 0.26 0.37
0.00 0.00 0.00 0.00 0.00 0.00 0.00 0.00 0.00 0.00 0.01 0.00 0.00 0.07 0.02 0.00 0.00 0.00 0.05 0.01 0.03 0.06 0.07 0.07 0.06 0.05 0.06 0.03 0.10 0.10 0.06 0.10 0.11 0.15 0.05 0.03 0.01 0.01 0.01 0.04 0.02 0.06 0.05 0.07 0.10 0.13 0.22 0.23 0.24 0.24 0.24 0.19 0.21 0.26 0.36 0.51 0.68 0.43 0.64 0.70 0.96 0.97 0.68 0.71 0.45 0.16 0.28 0.27 0.32 0.17 0.19 0.22 0.12 0.12 0.06 0.07 0.10 0.14 0.07 0.06 0.02 0.04 0.04 0.06 0.10
0.01 0.01 0.00 0.00 0.00 0.00 0.00 0.01 0.02 0.02 0.04 0.00 0.00 0.00 0.03 0.01 0.00 0.00 0.00 0.01 0.03 0.06 0.03 0.07 0.03 0.03 0.03 0.04 0.04 0.12 0.24 0.25 0.21 0.09 0.03 0.01 0.00 0.01 0.01 0.01 0.01 0.03 0.08 0.07 0.09 0.19 0.26 0.26 0.26 0.19 0.21 0.19 0.22 0.31 0.48 0.51 0.70 1.05 0.81 0.62 0.58 0.73 0.84 0.63 0.50 0.41 0.49 0.45 0.93 0.82 0.65 0.40 0.37 0.28 0.15 0.18 0.15 0.17 0.17 0.06 0.09 0.09 0.11 0.14 0.15
0.01 0.02 0.01 0.00 0.00 0.01 0.00 0.04 0.03 0.01 0.05 0.00 0.00 0.00 0.02 0.08 0.01 0.04 0.02 0.03 0.02 0.08 0.10 0.03 0.05 0.03 0.03 0.12 0.06 0.15 0.34 0.34 0.07 0.02 0.04 0.00 0.00 0.00 0.00 0.00 0.01 0.00 0.07 0.06 0.06 0.15 0.24 0.21 0.22 0.20 0.18 0.24 0.33 0.35 0.42 0.58 0.78 0.64 0.66 0.56 0.47 0.62 1.02 1.24 0.93 0.71 1.03 0.77 0.82 0.65 0.61 0.73 0.95 0.61 0.41 0.21 0.17 0.11 0.17 0.19 0.32 0.30 0.25 0.37 0.28
0.01 0.01 0.03 0.03 0.02 0.01 0.01 0.01 0.04 0.05 0.02 0.05 0.00 0.02 0.08 0.04 0.03 0.01 0.01 0.02 0.02 0.03 0.04 0.06 0.05 0.08 0.06 0.07 0.20 0.33 0.40 0.27 0.16 0.15 0.01 0.01 0.00 0.00 0.00 0.00 0.00 0.00 0.00 0.02 0.06 0.11 0.15 0.17 0.16 0.19 0.16 0.22 0.29 0.49 0.40 0.41 0.57 0.58 0.50 0.50 0.69 0.68 0.55 1.00 1.53 1.17 1.46 1.23 0.90 0.61 0.46 0.58 0.82 0.42 0.43 0.36 0.10 0.12 0.13 0.10 0.08 0.34 0.32 0.40 0.51
0.01 0.01 0.00 0.00 0.03 0.04 0.06 0.03 0.03 0.01 0.00 0.00 0.00 0.00 0.01 0.01 0.00 0.00 0.01 0.02 0.01 0.10 0.04 0.06 0.09 0.08 0.11 0.48 0.52 0.16 0.19 0.28 0.35 0.18 0.00 0.00 0.00 0.00 0.00 0.00 0.00 0.00 0.00 0.00 0.00 0.01 0.08 0.18 0.13 0.11 0.13 0.10 0.15 0.42 0.51 0.45 0.44 0.55 0.54 0.43 0.35 0.55 0.53 0.78 1.17 1.51 1.35 1.22 0.97 0.99 0.74 0.54 0.49 1.17 1.04 0.80 0.67 0.57 0.17 0.36 0.10 0.15 0.16 0.17 0.45
0.02 0.00 0.00 0.01 0.00 0.01 0.00 0.01 0.04 0.04 0.00 0.00 0.00 0.01 0.00 0.00 0.01 0.05 0.04 0.12 0.14 0.11 0.06 0.06 0.10 0.13 0.32 0.49 0.28 0.48 0.10 0.24 0.16 0.00 0.00 0.00 0.00 0.00 0.00 0.00 0.00 0.00 0.01 0.02 0.00 0.00 0.00 0.19 0.05 0.05 0.06 0.07 0.09 0.17 0.37 0.43 0.45 0.44 0.60 0.54 0.43 0.32 0.42 0.37 0.79 1.38 1.66 1.72 1.09 0.87 1.02 0.84 0.89 0.55 0.68 0.90 0.90 0.60 0.57 0.39 0.27 0.33 0.20 0.16 0.50
0.01 0.01 0.00 0.01 0.00 0.02 0.00 0.00 0.01 0.00 0.00 0.00 0.00 0.01 0.05 0.01 0.01 0.01 0.15 0.35 0.14 0.11 0.06 0.07 0.14 0.10 0.12 0.02 0.09 0.07 0.08 0.06 0.00 0.00 0.00 0.00 0.00 0.00 0.00 0.00 0.00 0.00 0.00 0.00 0.00 0.00 0.00 0.01 0.02 0.03 0.03 0.03 0.05 0.10 0.22 0.35 0.42 0.43 0.45 0.55 0.53 0.42 0.28 0.27 0.40 0.63 0.88 1.50 1.91 1.45 1.09 0.89 0.64 0.75 1.07 0.95 0.58 1.01 0.90 0.52 0.51 0.37 0.32 0.46 0.47
0.00 0.00 0.00 0.00 0.00 0.00 0.01 0.00 0.02 0.01 0.00 0.00 0.00 0.01 0.04 0.09 0.01 0.06 0.01 0.00 0.00 0.02 0.05 0.05 0.04 0.02 0.00 0.11 0.12 0.00 0.00 0.00 0.00 0.01 0.00 0.01 0.00 0.00 0.00 0.00 0.00 0.00 0.00 0.00 0.00 0.00 0.00 0.06 0.07 0.00 0.00 0.00 0.02 0.03 0.09 0.21 0.30 0.39 0.43 0.44 0.54 0.49 0.38 0.26 0.23 0.38 0.66 0.71 0.93 1.28 1.70 1.24 1.17 1.04 0.95 0.70 1.24 1.12 1.01 0.96 0.59 0.42 0.43 0.59 0.37
0.00 0.00 0.00 0.00 0.00 0.00 0.06 0.02 0.00 0.00 0.00 0.01 0.02 0.01 0.00 0.00 0.00 0.03 0.00 0.00 0.00 0.00 0.00 0.01 0.00 0.00 0.06 0.00 0.00 0.00 0.00 0.00 0.01 0.01 0.01 0.01 0.01 0.01 0.01 0.00 0.00 0.00 0.00 0.00 0.00 0.00 0.05 0.01 0.00 0.00 0.00 0.00 0.00 0.01 0.03 0.12 0.20 0.25 0.35 0.38 0.46 0.53 0.48 0.37 0.30 0.28 0.65 0.78 0.69 0.71 0.74 0.98 1.08 1.23 1.11 0.94 0.96 0.78 1.27 1.58 1.19 0.82 0.54 0.71 0.64
0.00 0.01 0.01 0.01 0.00 0.01 0.01 0.01 0.00 0.00 0.00 0.00 0.05 0.01 0.06 0.00 0.00 0.01 0.00 0.00 0.00 0.00 0.00 0.01 0.01 0.01 0.00 0.00 0.00 0.01 0.01 0.01 0.01 0.01 0.00 0.01 0.00 0.00 0.00 0.00 0.00 0.00 0.00 0.00 0.02 0.01 0.01 0.00 0.00 0.00 0.00 0.00 0.00 0.00 0.01 0.03 0.13 0.14 0.23 0.29 0.36 0.45 0.52 0.41 0.39 0.41 0.39 0.61 0.70 0.70 0.70 0.69 0.56 0.68 0.91 1.05 1.05 1.11 0.98 1.04 1.37 1.09 1.03 0.94 0.96
0.01 0.02 0.02 0.02 0.01 0.00 0.00 0.00 0.00 0.00 0.00 0.00 0.00 0.00 0.06 0.37 0.02 0.02 0.02 0.01 0.01 0.01 0.01 0.01 0.01 0.01 0.01 0.01 0.00 0.00 0.00 0.00 0.00 0.00 0.00 0.00 0.00 0.00 0.00 0.00 0.00 0.00 0.00 0.00 0.00 0.00 0.00 0.00 0.00 0.00 0.00 0.00 0.00 0.00 0.00 0.01 0.04 0.08 0.10 0.15 0.23 0.34 0.51 0.45 0.38 0.36 0.37 0.43 0.59 0.74 0.76 0.73 0.60 0.53 0.47 0.63 0.88 1.12 1.04 0.85 1.04 1.28 1.43 0.95 0.89
0.02 0.02 0.00 0.00 0.00 0.00 0.00 0.00 0.00 0.00 0.00 0.00 0.00 0.01 0.16 0.09 0.30 0.05 0.08 0.03 0.02 0.02 0.02 0.01 0.00 0.00 0.00 0.01 0.01 0.01 0.01 0.00 0.00 0.00 0.00 0.00 0.00 0.00 0.00 0.00 0.00 0.00 0.00 0.00 0.00 0.00 0.00 0.00 0.00 0.00 0.00 0.00 0.00 0.00 0.00 0.00 0.02 0.06 0.06 0.06 0.12 0.21 0.33 0.52 0.32 0.34 0.36 0.27 0.34 0.55 0.67 0.74 0.76 0.66 0.58 0.57 0.52 0.70 0.86 0.80 0.84 0.95 1.04 1.18 0.94
0.00 0.01 0.02 0.00 0.00 0.00 0.01 0.01 0.01 0.00 0.00 0.01 0.02 0.23 0.37 0.42 0.45 0.22 0.08 0.25 0.20 0.12 0.05 0.02 0.00 0.00 0.00 0.00 0.00 0.00 0.00 0.00 0.00 0.00 0.00 0.00 0.00 0.00 0.00 0.00 0.00 0.00 0.00 0.00 0.00 0.00 0.00 0.00 0.00 0.00 0.00 0.00 0.00 0.00 0.00 0.00 0.00 0.01 0.02 0.04 0.05 0.12 0.31 0.15 0.18 0.24 0.34 0.37 0.28 0.28 0.39 0.54 0.63 0.68 0.66 0.59 0.50 0.48 0.61 0.48 0.47 0.72 0.83 0.80 0.89
0.00 0.00 0.00 0.00 0.01 0.01 0.02 0.01 0.01 0.01 0.01 0.02 0.04 0.07 0.23 0.34 0.61 0.49 0.35 0.26 0.20 0.14 0.04 0.01 0.00 0.00 0.00 0.00 0.00 0.00 0.00 0.00 0.00 0.00 0.00 0.00 0.00 0.00 0.00 0.00 0.00 0.00 0.00 0.00 0.00 0.00 0.00 0.00 0.00 0.00 0.00 0.00 0.00 0.00 0.00 0.00 0.00 0.00 0.00 0.01 0.03 0.08 0.13 0.08 0.07 0.11 0.17 0.31 0.31 0.27 0.29 0.33 0.41 0.49 0.56 0.59 0.61 0.57 0.51 0.52 0.40 0.36 0.46 0.58 0.54
0.01 0.01 0.01 0.01 0.01 0.01 0.02 0.03 0.04 0.04 0.02 0.03 0.16 0.15 0.08 0.04 0.16 0.50 0.25 0.20 0.26 0.18 0.04 0.02 0.00 0.00 0.00 0.00 0.00 0.00 0.00 0.00 0.00 0.00 0.00 0.00 0.00 0.00 0.00 0.00 0.00 0.00 0.00 0.00 0.00 0.00 0.00 0.00 0.00 0.00 0.00 0.00 0.00 0.00 0.00 0.00 0.00 0.00 0.00 0.00 0.01 0.01 0.01 0.02 0.02 0.02 0.04 0.07 0.14 0.19 0.29 0.33 0.34 0.32 0.37 0.41 0.48 0.54 0.57 0.56 0.56 0.52 0.41 0.38 0.40
0.02 0.06 0.11 0.14 0.05 0.07 0.05 0.05 0.06 0.09 0.12 0.19 0.11 0.10 0.13 0.19 0.23 0.12 0.05 0.11 0.16 0.08 0.07 0.03 0.01 0.00 0.00 0.00 0.00 0.00 0.00 0.00 0.00 0.00 0.00 0.00 0.00 0.00 0.00 0.00 0.00 0.00 0.00 0.00 0.00 0.00 0.00 0.00 0.00 0.00 0.00 0.00 0.00 0.00 0.00 0.00 0.00 0.00 0.00 0.00 0.01 0.00 0.00 0.00 0.00 0.00 0.01 0.01 0.02 0.04 0.07 0.14 0.43 0.62 0.28 0.28 0.30 0.37 0.41 0.46 0.47 0.50 0.55 0.58 0.55
0.01 0.07 0.15 0.10 0.29 0.08 0.11 0.09 0.14 0.21 0.26 0.21 0.29 0.25 0.28 0.30 0.14 0.10 0.09 0.07 0.07 0.05 0.02 0.01 0.01 0.01 0.01 0.00 0.00 0.00 0.00 0.00 0.00 0.00 0.00 0.00 0.00 0.00 0.00 0.00 0.00 0.00 0.00 0.00 0.00 0.00 0.00 0.00 0.00 0.00 0.00 0.00 0.00 0.00 0.00 0.00 0.00 0.00 0.00 0.00 0.00 0.00 0.00 0.00 0.00 0.00 0.00 0.00 0.00 0.01 0.01 0.01 0.03 0.08 0.23 0.17 0.22 0.27 0.33 0.36 0.35 0.34 0.35 0.37 0.40
0.01 0.00 0.00 0.00 0.00 0.04 0.10 0.13 0.20 0.34 0.41 0.41 0.44 0.42 0.32 0.21 0.12 0.09 0.07 0.06 0.05 0.06 0.04 0.03 0.03 0.04 0.03 0.01 0.00 0.00 0.00 0.00 0.00 0.00 0.00 0.00 0.00 0.00 0.00 0.00 0.00 0.00 0.00 0.00 0.00 0.00 0.00 0.00 0.00 0.00 0.00 0.00 0.00 0.00 0.00 0.00 0.00 0.00 0.00 0.01 0.00 0.00 0.00 0.00 0.00 0.00 0.00 0.00 0.00 0.00 0.00 0.00 0.00 0.01 0.03 0.06 0.18 0.18 0.27 0.25 0.28 0.26 0.27 0.25 0.25
0.02 0.03 0.01 0.00 0.02 0.03 0.05 0.09 0.11 0.19 0.19 0.24 0.30 0.23 0.14 0.10 0.09 0.09 0.11 0.08 0.05 0.08 0.08 0.05 0.03 0.01 0.03 0.00 0.00 0.00 0.00 0.00 0.00 0.00 0.00 0.00 0.00 0.00 0.00 0.00 0.00 0.00 0.00 0.00 0.00 0.00 0.00 0.00 0.00 0.00 0.00 0.00 0.00 0.00 0.00 0.00 0.00 0.01 0.02 0.00 0.00 0.00 0.00 0.00 0.00 0.00 0.00 0.00 0.00 0.00 0.00 0.00 0.00 0.00 0.00 0.01 0.01 0.03 0.15 0.26 0.20 0.19 0.20 0.18 0.18
0.02 0.02 0.02 0.03 0.06 0.20 0.09 0.14 0.12 0.12 0.13 0.13 0.09 0.05 0.06 0.06 0.12 0.08 0.06 0.04 0.02 0.02 0.02 0.02 0.00 0.00 0.00 0.01 0.02 0.01 0.00 0.00 0.00 0.00 0.00 0.00 0.00 0.00 0.00 0.00 0.00 0.00 0.00 0.00 0.00 0.00 0.00 0.00 0.00 0.00 0.00 0.00 0.00 0.00 0.00 0.00 0.00 0.00 0.00 0.00 0.00 0.00 0.00 0.00 0.00 0.00 0.00 0.00 0.00 0.00 0.00 0.00 0.00 0.00 0.00 0.00 0.00 0.00 0.01 0.01 0.04 0.08 0.14 0.12 0.09
0.02 0.02 0.04 0.06 0.08 0.13 0.14 0.16 0.12 0.10 0.10 0.04 0.05 0.08 0.06 0.03 0.02 0.03 0.01 0.00 0.00 0.01 0.01 0.01 0.00 0.00 0.01 0.01 0.02 0.01 0.01 0.03 0.01 0.01 0.00 0.00 0.00 0.00 0.00 0.00 0.00 0.00 0.00 0.00 0.00 0.00 0.00 0.00 0.00 0.00 0.00 0.01 0.01 0.01 0.01 0.00 0.00 0.00 0.00 0.00 0.00 0.00 0.00 0.00 0.00 0.00 0.00 0.00 0.00 0.00 0.00 0.00 0.00 0.00 0.00 0.01 0.00 0.00 0.00 0.01 0.02 0.00 0.04 0.04 0.06
0.04 0.22 0.21 0.09 0.08 0.09 0.12 0.11 0.09 0.09 0.05 0.01 0.01 0.03 0.01 0.01 0.01 0.00 0.00 0.01 0.01 0.01 0.02 0.01 0.01 0.00 0.00 0.00 0.00 0.00 0.01 0.02 0.02 0.01 0.01 0.02 0.01 0.00 0.00 0.00 0.00 0.00 0.00 0.00 0.00 0.00 0.00 0.00 0.00 0.00 0.00 0.00 0.00 0.00 0.00 0.00 0.00 0.00 0.00 0.00 0.00 0.00 0.00 0.00 0.00 0.00 0.00 0.00 0.00 0.00 0.00 0.00 0.00 0.00 0.01 0.05 0.03 0.05 0.00 0.01 0.05 0.05 0.10 0.03 0.05
0.04 0.04 0.04 0.04 0.07 0.08 0.04 0.02 0.01 0.00 0.00 0.00 0.00 0.00 0.00 0.00 0.01 0.01 0.00 0.00 0.01 0.01 0.01 0.01 0.01 0.01 0.01 0.00 0.00 0.00 0.01 0.01 0.01 0.02 0.03 0.04 0.03 0.02 0.01 0.01 0.00 0.01 0.00 0.00 0.00 0.00 0.00 0.00 0.00 0.00 0.00 0.00 0.00 0.00 0.00 0.00 0.00 0.00 0.00 0.00 0.00 0.00 0.00 0.00 0.00 0.00 0.00 0.00 0.00 0.00 0.00 0.00 0.00 0.00 0.01 0.02 0.03 0.03 0.03 0.07 0.13 0.14 0.09 0.05 0.04
0.01 0.00 0.01 0.03 0.05 0.03 0.01 0.00 0.00 0.00 0.00 0.00 0.00 0.00 0.00 0.00 0.00 0.01 0.01 0.01 0.01 0.01 0.00 0.00 0.00 0.01 0.01 0.01 0.00 0.00 0.00 0.01 0.04 0.04 0.02 0.01 0.00 0.00 0.01 0.02 0.03 0.02 0.00 0.00 0.00 0.00 0.00 0.00 0.00 0.00 0.00 0.00 0.00 0.00 0.00 0.00 0.00 0.00 0.00 0.00 0.00 0.00 0.00 0.00 0.00 0.00 0.00 0.00 0.00 0.00 0.00 0.00 0.00 0.00 0.00 0.00 0.00 0.08 0.10 0.02 0.08 0.12 0.09 0.09 0.07
0.01 0.02 0.01 0.01 0.02 0.01 0.00 0.00 0.00 0.00 0.00 0.00 0.00 0.00 0.00 0.00 0.00 0.01 0.01 0.01 0.01 0.00 0.00 0.00 0.00 0.00 0.00 0.00 0.00 0.00 0.00 0.00 0.00 0.00 0.00 0.01 0.01 0.01 0.01 0.00 0.00 0.00 0.01 0.01 0.00 0.00 0.00 0.00 0.00 0.00 0.00 0.00 0.00 0.00 0.00 0.00 0.00 0.00 0.00 0.00 0.00 0.00 0.00 0.00 0.00 0.00 0.00 0.00 0.00 0.00 0.00 0.00 0.00 0.00 0.00 0.00 0.00 0.00 0.01 0.08 0.08 0.03 0.04 0.06 0.04
0.00 0.00 0.00 0.00 0.00 0.00 0.00 0.00 0.00 0.00 0.00 0.00 0.00 0.00 0.00 0.00 0.00 0.01 0.02 0.01 0.00 0.00 0.00 0.00 0.00 0.00 0.00 0.00 0.00 0.00 0.00 0.00 0.00 0.00 0.00 0.00 0.01 0.00 0.00 0.00 0.00 0.00 0.00 0.00 0.00 0.00 0.00 0.00 0.00 0.00 0.00 0.00 0.00 0.00 0.00 0.00 0.00 0.00 0.00 0.00 0.00 0.00 0.00 0.00 0.00 0.00 0.00 0.00 0.00 0.00 0.00 0.00 0.00 0.00 0.00 0.00 0.00 0.00 0.00 0.00 0.00 0.01 0.01 0.02 0.02
0.00 0.00 0.00 0.00 0.00 0.00 0.00 0.00 0.00 0.00 0.00 0.00 0.00 0.00 0.00 0.00 0.00 0.00 0.01 0.00 0.00 0.00 0.00 0.00 0.00 0.00 0.00 0.00 0.00 0.00 0.00 0.00 0.00 0.00 0.00 0.00 0.00 0.00 0.00 0.00 0.00 0.00 0.00 0.00 0.00 0.00 0.00 0.00 0.00 0.00 0.00 0.00 0.00 0.00 0.00 0.00 0.00 0.00 0.00 0.00 0.00 0.00 0.00 0.00 0.00 0.00 0.00 0.00 0.00 0.00 0.00 0.00 0.00 0.00 0.00 0.00 0.00 0.00 0.01 0.01 0.01 0.02 0.02 0.02 0.01
0.00 0.00 0.00 0.00 0.00 0.00 0.00 0.00 0.00 0.00 0.00 0.00 0.00 0.00 0.00 0.00 0.00 0.00 0.00 0.00 0.00 0.00 0.00 0.00 0.00 0.00 0.00 0.00 0.00 0.00 0.00 0.00 0.00 0.00 0.00 0.00 0.00 0.00 0.00 0.00 0.00 0.00 0.00 0.00 0.00 0.00 0.00 0.00 0.00 0.00 0.00 0.00 0.00 0.00 0.00 0.00 0.00 0.00 0.00 0.00 0.00 0.00 0.00 0.00 0.00 0.00 0.00 0.00 0.00 0.00 0.00 0.00 0.00 0.00 0.00 0.00 0.00 0.00 0.00 0.00 0.01 0.01 0.02 0.02 0.02
0.00 0.00 0.00 0.00 0.00 0.00 0.00 0.00 0.00 0.00 0.00 0.00 0.00 0.00 0.00 0.00 0.00 0.00 0.00 0.00 0.00 0.00 0.00 0.00 0.00 0.00 0.00 0.00 0.00 0.00 0.00 0.00 0.00 0.00 0.00 0.00 0.00 0.00 0.00 0.00 0.00 0.00 0.00 0.00 0.00 0.00 0.00 0.00 0.00 0.00 0.00 0.00 0.00 0.00 0.00 0.00 0.00 0.00 0.00 0.00 0.00 0.00 0.00 0.00 0.00 0.00 0.00 0.00 0.00 0.00 0.00 0.00 0.00 0.00 0.00 0.00 0.00 0.00 0.01 0.01 0.02 0.02 0.03 0.03 0.04
0.00 0.00 0.00 0.00 0.00 0.00 0.00 0.00 0.00 0.00 0.00 0.00 0.00 0.00 0.00 0.00 0.00 0.00 0.00 0.00 0.00 0.00 0.00 0.00 0.00 0.00 0.00 0.00 0.00 0.00 0.00 0.00 0.00 0.00 0.00 0.00 0.00 0.00 0.00 0.00 0.00 0.00 0.00 0.00 0.00 0.00 0.00 0.00 0.00 0.00 0.00 0.00 0.00 0.00 0.00 0.00 0.00 0.00 0.00 0.00 0.00 0.00 0.00 0.00 0.00 0.00 0.00 0.00 0.00 0.00 0.00 0.00 0.00 0.00 0.00 0.00 0.00 0.00 0.00 0.00 0.01 0.01 0.03 0.04 0.05